Saint Bonnet de Bellac- Haute Vienne - France
Donnes mto: mardi, 11/09/2012
Date Horaire Temp. E. Hum. E. P.atmo. Pluie Vent Direction Direction Ensoleilleme Solaire P. de rose Temp au vent Rafales
11/09/2012 00:00 17,5 C 85 % 1015,7 hPa 0,0 mm 0,0 km/h (0 Bft) NO 315 0 min 0 W/m 14,9 C 17,5 C 0,0 km/h (0 Bft)
11/09/2012 00:10 17,4 C 85 % 1015,6 hPa 0,0 mm 0,0 km/h (0 Bft) NO 315 0 min 0 W/m 14,8 C 17,4 C 0,0 km/h (0 Bft)
11/09/2012 00:20 17,4 C 85 % 1015,5 hPa 0,0 mm 0,0 km/h (0 Bft) NE 45 0 min 0 W/m 14,8 C 17,4 C 0,0 km/h (0 Bft)
11/09/2012 00:30 17,4 C 86 % 1015,6 hPa 0,0 mm 0,0 km/h (0 Bft) NE 45 0 min 0 W/m 15,0 C 17,4 C 0,0 km/h (0 Bft)
11/09/2012 00:40 17,3 C 86 % 1015,6 hPa 0,0 mm 0,0 km/h (0 Bft) NE 45 0 min 0 W/m 14,9 C 17,3 C 0,0 km/h (0 Bft)
11/09/2012 00:50 17,3 C 86 % 1015,6 hPa 0,0 mm 0,0 km/h (0 Bft) NE 45 0 min 0 W/m 14,9 C 17,3 C 0,0 km/h (0 Bft)
11/09/2012 01:00 17,2 C 86 % 1015,7 hPa 0,0 mm 0,0 km/h (0 Bft) NE 45 0 min 0 W/m 14,8 C 17,2 C 0,0 km/h (0 Bft)
11/09/2012 01:10 17,2 C 86 % 1015,6 hPa 0,0 mm 0,0 km/h (0 Bft) NE 45 0 min 0 W/m 14,8 C 17,2 C 0,0 km/h (0 Bft)
11/09/2012 01:20 17,2 C 86 % 1015,7 hPa 0,0 mm 0,0 km/h (0 Bft) NE 45 0 min 0 W/m 14,8 C 17,2 C 0,0 km/h (0 Bft)
11/09/2012 01:30 17,1 C 86 % 1015,5 hPa 0,0 mm 0,0 km/h (0 Bft) NE 45 0 min 0 W/m 14,7 C 17,1 C 0,0 km/h (0 Bft)
11/09/2012 01:40 17,1 C 87 % 1015,5 hPa 0,0 mm 0,0 km/h (0 Bft) NE 45 0 min 0 W/m 14,9 C 17,1 C 0,0 km/h (0 Bft)
11/09/2012 01:50 17,2 C 87 % 1015,4 hPa 0,0 mm 0,0 km/h (0 Bft) NE 45 0 min 0 W/m 15,0 C 17,2 C 0,0 km/h (0 Bft)
11/09/2012 02:00 17,1 C 87 % 1015,6 hPa 0,0 mm 0,0 km/h (0 Bft) NE 45 0 min 0 W/m 14,9 C 17,1 C 0,0 km/h (0 Bft)
11/09/2012 02:10 16,9 C 87 % 1015,5 hPa 0,0 mm 0,0 km/h (0 Bft) NE 45 0 min 0 W/m 14,7 C 16,9 C 0,0 km/h (0 Bft)
11/09/2012 02:20 16,8 C 87 % 1015,6 hPa 0,0 mm 0,0 km/h (0 Bft) NE 45 0 min 0 W/m 14,6 C 16,8 C 0,0 km/h (0 Bft)
11/09/2012 02:30 16,6 C 87 % 1015,6 hPa 0,0 mm 0,0 km/h (0 Bft) NE 45 0 min 0 W/m 14,4 C 16,6 C 0,0 km/h (0 Bft)
11/09/2012 02:40 16,5 C 87 % 1015,7 hPa 0,0 mm 0,0 km/h (0 Bft) NE 45 0 min 0 W/m 14,3 C 16,5 C 0,0 km/h (0 Bft)
11/09/2012 02:50 16,4 C 87 % 1015,7 hPa 0,0 mm 0,0 km/h (0 Bft) NE 45 0 min 0 W/m 14,2 C 16,4 C 0,0 km/h (0 Bft)
11/09/2012 03:02 16,4 C 87 % 1015,7 hPa 0,0 mm 0,0 km/h (0 Bft) NE 45 0 min 0 W/m 14,2 C 16,4 C 0,0 km/h (0 Bft)
11/09/2012 03:10 16,4 C 88 % 1015,6 hPa 0,0 mm 0,0 km/h (0 Bft) NE 45 0 min 0 W/m 14,4 C 16,4 C 0,0 km/h (0 Bft)
11/09/2012 03:20 16,3 C 88 % 1015,6 hPa 0,0 mm 0,0 km/h (0 Bft) NE 45 0 min 0 W/m 14,3 C 16,3 C 0,0 km/h (0 Bft)
11/09/2012 03:30 16,2 C 88 % 1015,7 hPa 0,0 mm 0,0 km/h (0 Bft) N-NE 22 0 min 0 W/m 14,2 C 16,2 C 0,0 km/h (0 Bft)
11/09/2012 03:40 16,2 C 89 % 1015,8 hPa 0,0 mm 0,0 km/h (0 Bft) N-NE 22 0 min 0 W/m 14,4 C 16,2 C 0,0 km/h (0 Bft)
11/09/2012 03:50 16,2 C 89 % 1016,0 hPa 0,0 mm 0,4 km/h (0 Bft) N-NE 22 0 min 0 W/m 14,4 C 16,2 C 3,2 km/h (1 Bft)
11/09/2012 04:00 16,2 C 89 % 1016,1 hPa 0,0 mm 0,0 km/h (0 Bft) SO 225 0 min 0 W/m 14,4 C 16,2 C 0,0 km/h (0 Bft)
11/09/2012 04:10 16,3 C 90 % 1016,1 hPa 0,0 mm 1,4 km/h (1 Bft) S-SO 202 0 min 0 W/m 14,7 C 16,3 C 4,3 km/h (1 Bft)
11/09/2012 04:20 16,3 C 90 % 1016,1 hPa 0,0 mm 0,4 km/h (0 Bft) SO 225 0 min 0 W/m 14,7 C 16,3 C 2,9 km/h (1 Bft)
11/09/2012 04:30 16,4 C 91 % 1016,1 hPa 0,0 mm 1,8 km/h (1 Bft) S-SO 202 0 min 0 W/m 14,9 C 16,4 C 4,0 km/h (1 Bft)
11/09/2012 04:40 16,6 C 90 % 1016,2 hPa 0,0 mm 0,0 km/h (0 Bft) S 180 0 min 0 W/m 15,0 C 16,6 C 0,0 km/h (0 Bft)
11/09/2012 04:50 16,6 C 90 % 1016,1 hPa 0,0 mm 0,4 km/h (0 Bft) NO 315 0 min 0 W/m 15,0 C 16,6 C 3,2 km/h (1 Bft)
11/09/2012 05:00 16,6 C 90 % 1016,1 hPa 0,0 mm 0,0 km/h (0 Bft) S-SO 202 0 min 0 W/m 15,0 C 16,6 C 0,0 km/h (0 Bft)
11/09/2012 05:10 16,6 C 90 % 1015,9 hPa 0,0 mm 0,0 km/h (0 Bft) SO 225 0 min 0 W/m 15,0 C 16,6 C 0,0 km/h (0 Bft)
11/09/2012 05:20 16,7 C 89 % 1015,8 hPa 0,0 mm 0,0 km/h (0 Bft) SO 225 0 min 0 W/m 14,9 C 16,7 C 0,0 km/h (0 Bft)
11/09/2012 05:30 16,6 C 89 % 1015,9 hPa 0,0 mm 0,7 km/h (0 Bft) NO 315 0 min 0 W/m 14,8 C 16,6 C 4,0 km/h (1 Bft)
11/09/2012 05:40 16,4 C 89 % 1015,9 hPa 0,0 mm 1,8 km/h (1 Bft) NO 315 0 min 0 W/m 14,6 C 16,4 C 4,0 km/h (1 Bft)
11/09/2012 05:50 16,3 C 89 % 1015,9 hPa 0,0 mm 0,0 km/h (0 Bft) O-NO 292 0 min 0 W/m 14,5 C 16,3 C 0,0 km/h (0 Bft)
11/09/2012 06:00 16,1 C 89 % 1015,9 hPa 0,0 mm 0,0 km/h (0 Bft) O-NO 292 0 min 0 W/m 14,3 C 16,1 C 0,0 km/h (0 Bft)
11/09/2012 06:10 15,9 C 89 % 1015,8 hPa 0,0 mm 0,0 km/h (0 Bft) N-NO 337 0 min 0 W/m 14,1 C 15,9 C 0,0 km/h (0 Bft)
11/09/2012 06:20 15,8 C 89 % 1015,9 hPa 0,0 mm 0,0 km/h (0 Bft) N-NO 337 0 min 0 W/m 14,0 C 15,8 C 0,0 km/h (0 Bft)
11/09/2012 06:30 15,6 C 89 % 1015,8 hPa 0,0 mm 0,0 km/h (0 Bft) N-NO 337 0 min 0 W/m 13,8 C 15,6 C 0,0 km/h (0 Bft)
11/09/2012 06:40 15,4 C 89 % 1015,7 hPa 0,0 mm 0,4 km/h (0 Bft) S-SE 157 0 min 0 W/m 13,6 C 15,4 C 1,4 km/h (1 Bft)
11/09/2012 06:50 15,4 C 90 % 1015,8 hPa 0,0 mm 0,0 km/h (0 Bft) S-SE 157 0 min 0 W/m 13,8 C 15,4 C 0,0 km/h (0 Bft)
11/09/2012 07:00 15,3 C 90 % 1016,2 hPa 0,0 mm 0,0 km/h (0 Bft) S-SE 157 0 min 0 W/m 13,7 C 15,3 C 0,0 km/h (0 Bft)
11/09/2012 07:10 15,1 C 90 % 1016,3 hPa 0,0 mm 0,0 km/h (0 Bft) S-SE 157 0 min 0 W/m 13,5 C 15,1 C 0,0 km/h (0 Bft)
11/09/2012 07:20 14,9 C 89 % 1016,5 hPa 0,0 mm 0,0 km/h (0 Bft) S-SE 157 0 min 0 W/m 13,1 C 14,9 C 0,0 km/h (0 Bft)
11/09/2012 07:30 14,8 C 90 % 1016,4 hPa 0,0 mm 0,0 km/h (0 Bft) S-SE 157 0 min 0 W/m 13,2 C 14,8 C 0,0 km/h (0 Bft)
11/09/2012 07:40 14,8 C 90 % 1016,5 hPa 0,0 mm 0,0 km/h (0 Bft) S-SE 157 0 min 0 W/m 13,2 C 14,8 C 0,0 km/h (0 Bft)
11/09/2012 07:50 14,9 C 90 % 1016,5 hPa 0,0 mm 0,0 km/h (0 Bft) S-SE 157 0 min 0 W/m 13,3 C 14,9 C 0,0 km/h (0 Bft)
11/09/2012 08:00 14,9 C 90 % 1016,6 hPa 0,0 mm 0,0 km/h (0 Bft) O-SO 247 0 min 0 W/m 13,3 C 14,9 C 0,0 km/h (0 Bft)
11/09/2012 08:10 15,1 C 91 % 1016,5 hPa 0,0 mm 0,0 km/h (0 Bft) O-SO 247 0 min 0 W/m 13,6 C 15,1 C 0,0 km/h (0 Bft)
11/09/2012 08:20 15,2 C 91 % 1016,7 hPa 0,0 mm 0,0 km/h (0 Bft) O-SO 247 0 min 0 W/m 13,7 C 15,2 C 0,0 km/h (0 Bft)
11/09/2012 08:30 15,3 C 91 % 1016,6 hPa 0,0 mm 0,0 km/h (0 Bft) S-SO 202 0 min 0 W/m 13,8 C 15,3 C 0,0 km/h (0 Bft)
11/09/2012 08:40 15,3 C 91 % 1016,7 hPa 0,0 mm 0,0 km/h (0 Bft) S-SO 202 0 min 0 W/m 13,8 C 15,3 C 0,0 km/h (0 Bft)
11/09/2012 08:50 15,4 C 92 % 1016,7 hPa 0,0 mm 0,0 km/h (0 Bft) S 180 0 min 0 W/m 14,1 C 15,4 C 0,0 km/h (0 Bft)
11/09/2012 09:00 16,3 C 92 % 1016,6 hPa 0,0 mm 0,0 km/h (0 Bft) S 180 0 min 0 W/m 15,0 C 16,3 C 0,0 km/h (0 Bft)
11/09/2012 09:10 17,2 C 92 % 1016,6 hPa 0,0 mm 0,0 km/h (0 Bft) SO 225 0 min 0 W/m 15,9 C 17,2 C 0,0 km/h (0 Bft)
11/09/2012 09:20 17,8 C 91 % 1016,7 hPa 0,0 mm 0,0 km/h (0 Bft) SO 225 0 min 0 W/m 16,3 C 17,8 C 0,0 km/h (0 Bft)
11/09/2012 09:30 18,1 C 90 % 1016,8 hPa 0,0 mm 0,0 km/h (0 Bft) SO 225 0 min 0 W/m 16,4 C 18,1 C 0,0 km/h (0 Bft)
11/09/2012 09:40 18,3 C 89 % 1016,9 hPa 0,0 mm 0,0 km/h (0 Bft) SO 225 0 min 0 W/m 16,5 C 18,3 C 3,2 km/h (1 Bft)
11/09/2012 09:50 18,6 C 89 % 1016,8 hPa 0,0 mm 0,0 km/h (0 Bft) SO 225 0 min 0 W/m 16,7 C 18,6 C 0,0 km/h (0 Bft)
11/09/2012 10:00 18,8 C 88 % 1016,9 hPa 0,0 mm 0,0 km/h (0 Bft) SO 225 0 min 0 W/m 16,8 C 18,8 C 0,0 km/h (0 Bft)
11/09/2012 10:10 19,0 C 88 % 1016,9 hPa 0,0 mm 0,7 km/h (0 Bft) SO 225 0 min 0 W/m 17,0 C 19,0 C 3,2 km/h (1 Bft)
11/09/2012 10:20 19,3 C 87 % 1017,1 hPa 0,0 mm 0,0 km/h (0 Bft) S-SO 202 0 min 0 W/m 17,1 C 19,3 C 0,0 km/h (0 Bft)
11/09/2012 10:30 20,1 C 85 % 1017,3 hPa 0,0 mm 0,0 km/h (0 Bft) SO 225 0 min 0 W/m 17,5 C 20,1 C 0,0 km/h (0 Bft)
11/09/2012 10:40 20,7 C 83 % 1017,2 hPa 0,0 mm 0,0 km/h (0 Bft) O-SO 247 0 min 0 W/m 17,7 C 20,7 C 1,4 km/h (1 Bft)
11/09/2012 10:50 20,8 C 81 % 1017,4 hPa 0,0 mm 0,0 km/h (0 Bft) O-SO 247 0 min 0 W/m 17,4 C 20,8 C 0,0 km/h (0 Bft)
11/09/2012 11:00 20,9 C 79 % 1017,3 hPa 0,0 mm 0,4 km/h (0 Bft) O 270 0 min 0 W/m 17,1 C 20,9 C 3,2 km/h (1 Bft)
11/09/2012 11:10 21,1 C 78 % 1017,3 hPa 0,0 mm 1,1 km/h (1 Bft) O-NO 292 0 min 0 W/m 17,1 C 21,1 C 4,3 km/h (1 Bft)
11/09/2012 11:20 21,2 C 76 % 1017,4 hPa 0,0 mm 0,0 km/h (0 Bft) SO 225 0 min 0 W/m 16,8 C 21,2 C 0,0 km/h (0 Bft)
11/09/2012 11:30 21,4 C 75 % 1017,4 hPa 0,0 mm 1,4 km/h (1 Bft) SO 225 0 min 0 W/m 16,8 C 21,4 C 2,9 km/h (1 Bft)
11/09/2012 11:40 21,5 C 73 % 1017,4 hPa 0,0 mm 4,3 km/h (1 Bft) O-SO 247 0 min 0 W/m 16,4 C 21,5 C 6,5 km/h (2 Bft)
11/09/2012 11:50 21,9 C 71 % 1017,6 hPa 0,0 mm 2,9 km/h (1 Bft) O-SO 247 0 min 0 W/m 16,4 C 21,9 C 3,2 km/h (1 Bft)
11/09/2012 12:00 22,1 C 71 % 1017,6 hPa 0,0 mm 1,8 km/h (1 Bft) O-SO 247 0 min 0 W/m 16,6 C 22,1 C 6,1 km/h (2 Bft)
11/09/2012 12:10 22,6 C 67 % 1017,7 hPa 0,0 mm 6,1 km/h (2 Bft) SO 225 0 min 0 W/m 16,2 C 22,6 C 8,3 km/h (2 Bft)
11/09/2012 12:20 23,2 C 66 % 1017,6 hPa 0,0 mm 2,2 km/h (1 Bft) SO 225 0 min 0 W/m 16,5 C 23,2 C 2,9 km/h (1 Bft)
11/09/2012 12:30 24,2 C 62 % 1017,6 hPa 0,0 mm 2,2 km/h (1 Bft) S-SO 202 0 min 0 W/m 16,4 C 24,2 C 7,2 km/h (2 Bft)
11/09/2012 12:40 24,4 C 60 % 1017,6 hPa 0,0 mm 1,4 km/h (1 Bft) O-SO 247 0 min 0 W/m 16,1 C 24,4 C 3,6 km/h (1 Bft)
11/09/2012 12:50 24,6 C 60 % 1017,6 hPa 0,0 mm 1,4 km/h (1 Bft) O-NO 292 0 min 0 W/m 16,3 C 24,6 C 4,7 km/h (1 Bft)
11/09/2012 13:00 24,6 C 59 % 1017,6 hPa 0,0 mm 0,4 km/h (0 Bft) SO 225 0 min 0 W/m 16,0 C 24,6 C 0,4 km/h (0 Bft)
11/09/2012 13:10 24,5 C 57 % 1017,5 hPa 0,0 mm 4,7 km/h (1 Bft) S-SO 202 0 min 0 W/m 15,4 C 24,5 C 7,9 km/h (2 Bft)
11/09/2012 13:20 24,6 C 58 % 1017,4 hPa 0,0 mm 1,4 km/h (1 Bft) SO 225 0 min 0 W/m 15,8 C 24,6 C 6,5 km/h (2 Bft)
11/09/2012 13:30 24,8 C 57 % 1017,4 hPa 0,0 mm 5,0 km/h (1 Bft) S-SO 202 0 min 0 W/m 15,7 C 24,8 C 7,6 km/h (2 Bft)
11/09/2012 13:40 25,4 C 57 % 1017,4 hPa 0,0 mm 4,0 km/h (1 Bft) SO 225 0 min 0 W/m 16,2 C 25,4 C 6,8 km/h (2 Bft)
11/09/2012 13:50 25,9 C 55 % 1017,6 hPa 0,0 mm 6,5 km/h (2 Bft) O-SO 247 0 min 0 W/m 16,2 C 25,9 C 10,8 km/h (2 Bft)
11/09/2012 14:00 25,9 C 55 % 1017,5 hPa 0,0 mm 2,5 km/h (1 Bft) S 180 0 min 0 W/m 16,2 C 25,9 C 6,8 km/h (2 Bft)
11/09/2012 14:10 25,4 C 57 % 1017,5 hPa 0,0 mm 6,5 km/h (2 Bft) O-SO 247 0 min 0 W/m 16,2 C 25,4 C 6,5 km/h (2 Bft)
11/09/2012 14:20 25,3 C 56 % 1017,3 hPa 0,0 mm 12,2 km/h (2 Bft) SO 225 0 min 0 W/m 15,9 C 25,3 C 19,4 km/h (3 Bft)
11/09/2012 14:30 24,9 C 57 % 1017,4 hPa 0,0 mm 5,0 km/h (1 Bft) SO 225 0 min 0 W/m 15,8 C 24,9 C 8,6 km/h (2 Bft)
11/09/2012 14:40 25,1 C 58 % 1017,1 hPa 0,0 mm 3,6 km/h (1 Bft) S-SO 202 0 min 0 W/m 16,2 C 25,1 C 6,1 km/h (2 Bft)
11/09/2012 14:50 25,3 C 57 % 1017,1 hPa 0,0 mm 9,0 km/h (2 Bft) O-SO 247 0 min 0 W/m 16,2 C 25,3 C 13,7 km/h (3 Bft)
11/09/2012 15:00 25,1 C 57 % 1017,0 hPa 0,0 mm 2,5 km/h (1 Bft) S 180 0 min 0 W/m 16,0 C 25,1 C 4,3 km/h (1 Bft)
11/09/2012 15:10 25,1 C 58 % 1017,0 hPa 0,0 mm 5,0 km/h (1 Bft) O-SO 247 0 min 0 W/m 16,2 C 25,1 C 9,7 km/h (2 Bft)
11/09/2012 15:20 24,9 C 57 % 1017,0 hPa 0,0 mm 4,0 km/h (1 Bft) S-SO 202 0 min 0 W/m 15,8 C 24,9 C 11,5 km/h (2 Bft)
11/09/2012 15:30 24,4 C 59 % 1017,0 hPa 0,0 mm 1,8 km/h (1 Bft) SO 225 0 min 0 W/m 15,9 C 24,4 C 2,9 km/h (1 Bft)
11/09/2012 15:40 24,4 C 60 % 1016,9 hPa 0,0 mm 5,4 km/h (2 Bft) SO 225 0 min 0 W/m 16,1 C 24,4 C 13,7 km/h (3 Bft)
11/09/2012 15:50 24,5 C 59 % 1016,8 hPa 0,0 mm 2,9 km/h (1 Bft) S-SO 202 0 min 0 W/m 15,9 C 24,5 C 6,8 km/h (2 Bft)
11/09/2012 16:00 24,6 C 60 % 1016,9 hPa 0,0 mm 0,4 km/h (0 Bft) NO 315 0 min 0 W/m 16,3 C 24,6 C 3,2 km/h (1 Bft)
11/09/2012 16:10 25,1 C 59 % 1016,9 hPa 0,0 mm 4,7 km/h (1 Bft) O-SO 247 0 min 0 W/m 16,5 C 25,1 C 6,1 km/h (2 Bft)
11/09/2012 16:20 24,9 C 58 % 1016,8 hPa 0,0 mm 5,4 km/h (2 Bft) O-NO 292 0 min 0 W/m 16,1 C 24,9 C 6,8 km/h (2 Bft)
11/09/2012 16:30 24,5 C 59 % 1016,7 hPa 0,0 mm 5,4 km/h (2 Bft) O-SO 247 0 min 0 W/m 15,9 C 24,5 C 5,4 km/h (2 Bft)
11/09/2012 16:40 24,3 C 60 % 1016,7 hPa 0,0 mm 3,2 km/h (1 Bft) O-SO 247 0 min 0 W/m 16,0 C 24,3 C 7,6 km/h (2 Bft)
11/09/2012 16:50 24,5 C 60 % 1016,5 hPa 0,0 mm 3,2 km/h (1 Bft) O 270 0 min 0 W/m 16,2 C 24,5 C 10,4 km/h (2 Bft)
11/09/2012 17:00 24,9 C 58 % 1016,6 hPa 0,0 mm 2,5 km/h (1 Bft) S-SO 202 0 min 0 W/m 16,1 C 24,9 C 4,0 km/h (1 Bft)
11/09/2012 17:10 25,1 C 58 % 1016,6 hPa 0,0 mm 4,3 km/h (1 Bft) O 270 0 min 0 W/m 16,2 C 25,1 C 12,6 km/h (3 Bft)
11/09/2012 17:20 24,9 C 58 % 1016,5 hPa 0,0 mm 4,0 km/h (1 Bft) O-SO 247 0 min 0 W/m 16,1 C 24,9 C 7,6 km/h (2 Bft)
11/09/2012 17:30 24,6 C 58 % 1016,5 hPa 0,0 mm 4,0 km/h (1 Bft) O-SO 247 0 min 0 W/m 15,8 C 24,6 C 5,8 km/h (2 Bft)
11/09/2012 17:40 24,4 C 59 % 1016,5 hPa 0,0 mm 8,3 km/h (2 Bft) N-NO 337 0 min 0 W/m 15,9 C 24,4 C 8,3 km/h (2 Bft)
11/09/2012 17:50 24,3 C 59 % 1016,5 hPa 0,0 mm 7,2 km/h (2 Bft) O-NO 292 0 min 0 W/m 15,8 C 24,3 C 11,9 km/h (2 Bft)
11/09/2012 18:00 24,2 C 59 % 1016,6 hPa 0,0 mm 4,7 km/h (1 Bft) N 360 0 min 0 W/m 15,7 C 24,2 C 6,8 km/h (2 Bft)
11/09/2012 18:10 23,9 C 61 % 1016,8 hPa 0,0 mm 14,0 km/h (3 Bft) N-NO 337 0 min 0 W/m 15,9 C 23,9 C 14,0 km/h (3 Bft)
11/09/2012 18:20 23,3 C 64 % 1016,8 hPa 0,0 mm 6,5 km/h (2 Bft) NO 315 0 min 0 W/m 16,1 C 23,3 C 19,8 km/h (3 Bft)
11/09/2012 18:30 22,8 C 66 % 1016,9 hPa 0,0 mm 0,4 km/h (0 Bft) N-NO 337 0 min 0 W/m 16,1 C 22,8 C 3,6 km/h (1 Bft)
11/09/2012 18:40 22,6 C 67 % 1016,9 hPa 0,0 mm 5,0 km/h (1 Bft) NO 315 0 min 0 W/m 16,2 C 22,6 C 10,8 km/h (2 Bft)
11/09/2012 18:50 22,5 C 67 % 1017,0 hPa 0,0 mm 2,9 km/h (1 Bft) NO 315 0 min 0 W/m 16,1 C 22,5 C 4,3 km/h (1 Bft)
11/09/2012 19:00 22,3 C 67 % 1017,1 hPa 0,0 mm 4,3 km/h (1 Bft) N-NO 337 0 min 0 W/m 15,9 C 22,3 C 7,9 km/h (2 Bft)
11/09/2012 19:10 22,1 C 67 % 1017,1 hPa 0,0 mm 4,0 km/h (1 Bft) N-NO 337 0 min 0 W/m 15,7 C 22,1 C 7,9 km/h (2 Bft)
11/09/2012 19:20 21,8 C 68 % 1017,1 hPa 0,0 mm 1,4 km/h (1 Bft) N-NO 337 0 min 0 W/m 15,6 C 21,8 C 2,9 km/h (1 Bft)
11/09/2012 19:30 21,5 C 69 % 1017,2 hPa 0,0 mm 6,1 km/h (2 Bft) NO 315 0 min 0 W/m 15,6 C 21,5 C 11,2 km/h (2 Bft)
11/09/2012 19:40 21,3 C 69 % 1017,2 hPa 0,0 mm 0,0 km/h (0 Bft) N-NO 337 0 min 0 W/m 15,4 C 21,3 C 1,4 km/h (1 Bft)
11/09/2012 19:50 21,0 C 70 % 1017,1 hPa 0,0 mm 0,0 km/h (0 Bft) NO 315 0 min 0 W/m 15,3 C 21,0 C 0,0 km/h (0 Bft)
11/09/2012 20:00 20,8 C 71 % 1017,3 hPa 0,0 mm 0,0 km/h (0 Bft) NO 315 0 min 0 W/m 15,3 C 20,8 C 0,0 km/h (0 Bft)
11/09/2012 20:10 20,6 C 71 % 1017,3 hPa 0,0 mm 0,0 km/h (0 Bft) NO 315 0 min 0 W/m 15,2 C 20,6 C 0,0 km/h (0 Bft)
11/09/2012 20:20 20,4 C 72 % 1017,4 hPa 0,0 mm 2,2 km/h (1 Bft) S-SO 202 0 min 0 W/m 15,2 C 20,4 C 3,6 km/h (1 Bft)
11/09/2012 20:30 20,3 C 74 % 1017,5 hPa 0,0 mm 2,5 km/h (1 Bft) O-SO 247 0 min 0 W/m 15,5 C 20,3 C 3,6 km/h (1 Bft)
11/09/2012 20:40 20,2 C 74 % 1017,6 hPa 0,0 mm 2,2 km/h (1 Bft) NO 315 0 min 0 W/m 15,4 C 20,2 C 6,5 km/h (2 Bft)
11/09/2012 20:50 20,0 C 74 % 1017,8 hPa 0,0 mm 2,9 km/h (1 Bft) N-NE 22 0 min 0 W/m 15,2 C 20,0 C 3,2 km/h (1 Bft)
11/09/2012 21:00 19,8 C 74 % 1017,6 hPa 0,0 mm 4,3 km/h (1 Bft) E-NE 67 0 min 0 W/m 15,0 C 19,8 C 4,3 km/h (1 Bft)
11/09/2012 21:10 19,5 C 75 % 1017,6 hPa 0,0 mm 0,4 km/h (0 Bft) N-NE 22 0 min 0 W/m 14,9 C 19,5 C 0,4 km/h (0 Bft)
11/09/2012 21:20 19,3 C 76 % 1017,8 hPa 0,0 mm 3,2 km/h (1 Bft) NE 45 0 min 0 W/m 15,0 C 19,3 C 7,6 km/h (2 Bft)
11/09/2012 21:30 19,0 C 77 % 1018,0 hPa 0,0 mm 0,7 km/h (0 Bft) NE 45 0 min 0 W/m 14,9 C 19,0 C 3,6 km/h (1 Bft)
11/09/2012 21:40 18,8 C 77 % 1018,1 hPa 0,0 mm 4,7 km/h (1 Bft) NE 45 0 min 0 W/m 14,7 C 18,8 C 6,5 km/h (2 Bft)
11/09/2012 21:50 18,6 C 79 % 1018,1 hPa 0,0 mm 1,1 km/h (1 Bft) N-NE 22 0 min 0 W/m 14,9 C 18,6 C 4,3 km/h (1 Bft)
11/09/2012 22:00 18,3 C 79 % 1018,2 hPa 0,0 mm 0,4 km/h (0 Bft) N-NE 22 0 min 0 W/m 14,6 C 18,3 C 0,4 km/h (0 Bft)
11/09/2012 22:10 18,2 C 80 % 1018,2 hPa 0,0 mm 0,0 km/h (0 Bft) N-NE 22 0 min 0 W/m 14,7 C 18,2 C 0,0 km/h (0 Bft)
11/09/2012 22:20 18,0 C 79 % 1018,2 hPa 0,0 mm 1,4 km/h (1 Bft) NE 45 0 min 0 W/m 14,3 C 18,0 C 1,4 km/h (1 Bft)
11/09/2012 22:30 17,8 C 79 % 1018,3 hPa 0,0 mm 0,0 km/h (0 Bft) NE 45 0 min 0 W/m 14,1 C 17,8 C 0,0 km/h (0 Bft)
11/09/2012 22:40 17,8 C 80 % 1018,3 hPa 0,0 mm 0,0 km/h (0 Bft) NE 45 0 min 0 W/m 14,3 C 17,8 C 0,0 km/h (0 Bft)
11/09/2012 22:50 17,7 C 80 % 1018,5 hPa 0,0 mm 0,4 km/h (0 Bft) N-NE 22 0 min 0 W/m 14,2 C 17,7 C 3,2 km/h (1 Bft)
11/09/2012 23:00 17,6 C 80 % 1018,5 hPa 0,0 mm 0,0 km/h (0 Bft) N-NE 22 0 min 0 W/m 14,1 C 17,6 C 0,0 km/h (0 Bft)
11/09/2012 23:10 17,5 C 80 % 1018,6 hPa 0,0 mm 2,9 km/h (1 Bft) N-NE 22 0 min 0 W/m 14,0 C 17,5 C 4,3 km/h (1 Bft)
11/09/2012 23:20 17,4 C 80 % 1018,7 hPa 0,0 mm 1,4 km/h (1 Bft) N-NE 22 0 min 0 W/m 13,9 C 17,4 C 1,4 km/h (1 Bft)
11/09/2012 23:30 17,3 C 80 % 1018,6 hPa 0,0 mm 2,5 km/h (1 Bft) N-NE 22 0 min 0 W/m 13,8 C 17,3 C 4,3 km/h (1 Bft)
11/09/2012 23:40 17,2 C 80 % 1018,6 hPa 0,0 mm 4,7 km/h (1 Bft) N-NE 22 0 min 0 W/m 13,7 C 17,2 C 4,7 km/h (1 Bft)
11/09/2012 23:50 17,1 C 79 % 1018,5 hPa 0,0 mm 2,2 km/h (1 Bft) NE 45 0 min 0 W/m 13,4 C 17,1 C 2,2 km/h (1 Bft)
_ Min-Heure 07:40 14:00 01:50 - 23:00 - - - - 07:20 07:40 23:00
Minimum _ 14,8 C 55 % 1015,4 hPa - 0,0 km/h (0 Bft) - - - - 13,1 C 14,8 C 0,0 km/h (0 Bft)
_ Max-Heure 14:00 09:10 23:20 23:50 18:10 - - 23:50 23:50 10:40 14:00 18:20
Maximum _ 25,9 C 92 % 1018,7 hPa 0,0 mm 14,0 km/h
N-NO (3 Bft)
- - 0 min 0 W/m 17,7 C 25,9 C 19,8 km/h
NO (3 Bft)
Moyenne _ 19,7 C 77 % 1016,8 hPa #0,0 mm 1,8 km/h (1 Bft) NE - #0 min. 0 W/m 15,2 C 19,7 C 3,4 km/h (1 Bft)
Saint Bonnet de Bellac- Haute Vienne - France